User: anonymous   Login
Location: Newark
(0.5300°S, 127.4800°E)
Time: 14:54:08
(UTC+00:00)
Language:

deb Explorer IX - Orbit

View from above orbital plane
View from above orbital plane
View from above satellite
View from above satellite

Ground track
Ground track

The orbit data is extracted from the following two-line orbital elements,

1    85U 61004C   19258.51275439 -.00001976 +00000-0 -39900-3 0  9994
2    85 038.7742 347.6224 0391008 101.2592 263.2349 14.19951486891853
Epoch (UTC): 15 September 2019 12:18:21
Eccentricity: 0.0391008
inclination: 38.7742°
perigee height: 544 km
apogee height: 1107 km
right ascension of ascending node: 347.6224°
argument of perigee: 101.2592°
revolutions per day: 14.19951486
mean anomaly at epoch: 263.2349°
orbit number at epoch: 89185

The dashed part of the orbit path shows where the satellite is in the earth's shadow,  

DLR